Willimantic, CT

8:07 AM EDT on August 25, 2019 (GMT -0400)
Windham

Weather History for KIJD - June, 2019

Change the Weather History Date:

Thursday, June 13, 2019

  Actual Average Record
Temperature  
Mean Temperature 54 °F -  
Max Temperature 55 °F 76 °F 96 °F (2017)
Min Temperature 52 °F 52 °F 37 °F (1979)
Degree Days  
Heating Degree Days 12    
Growing Degree Days 4 (Base 50)    
Moisture  
Dew Point 51 °F    
Average Humidity 89    
Maximum Humidity 94    
Minimum Humidity 75    
Precipitation  
Precipitation 0.41 in - - ()
Sea Level Pressure  
Sea Level Pressure 29.85 in    
Wind  
Wind Speed 5 mph ()    
Max Wind Speed 13 mph    
Max Gust Speed 24 mph    
Visibility 6.7 miles    
Events Rain    
Averages and records for this station are not official NWS values.
T = Trace of Precipitation, MM = Missing Value Source: Averaged Metar Reports

Daily Weather History Graph

Daily Weather History Graph

Search for Another Location

Airport or City:

Astronomy

Jun. 13, 2019 Rise Set
Actual Time 5:13 AM EDT 8:24 PM EDT
Civil Twilight 4:39 AM EDT 8:58 PM EDT
Nautical Twilight 3:55 AM EDT 9:42 PM EDT
Astronomical Twilight 3:03 AM EDT 10:34 PM EDT
Moon 4:32 PM EDT (6/13) 3:01 AM EDT (6/13)
Length of Visible Light 16h 18m
Length of Day
15h 10m
Waxing Gibbous, 85% of the Moon is Illuminated
Jun 13
Waxing Gibbous
Jun 17
Full
Jun 25
Last Quarter
Jul 2
New
Jul 9
First Quarter

Hourly Weather History & Observations

Time (EDT) Temp. Dew Point Humidity Pressure Visibility Wind Dir Wind Speed Gust Speed Precip Events Conditions
12:52 AM 54.0 °F 50.0 °F 86% 30.13 in 10.0 mi Calm Calm - N/A   Clear
1:52 AM 52.0 °F 48.9 °F 89% 30.11 in 10.0 mi North 3.5 mph - N/A   Clear
2:52 AM 52.0 °F 48.9 °F 89% 30.10 in 10.0 mi NNW 3.5 mph - N/A   Clear
3:52 AM 52.0 °F 50.0 °F 93% 30.07 in 10.0 mi NNE 3.5 mph - N/A   Clear
4:52 AM 52.0 °F 48.9 °F 89% 30.04 in 10.0 mi Calm Calm - N/A   Clear
5:52 AM 55.0 °F 50.0 °F 83% 30.03 in 10.0 mi NE 4.6 mph - N/A   Partly Cloudy
6:52 AM 55.0 °F 48.9 °F 80% 30.02 in 10.0 mi ENE 5.8 mph - 0.01 in Rain Light Rain
7:52 AM 55.9 °F 48.9 °F 77% 30.01 in 10.0 mi Variable 3.5 mph - 0.01 in   Overcast
8:52 AM 55.9 °F 48.0 °F 75% 29.99 in 10.0 mi Variable 4.6 mph - 0.00 in   Overcast
9:52 AM 55.9 °F 50.0 °F 80% 29.96 in 10.0 mi ENE 8.1 mph - 0.00 in   Overcast
10:28 AM 55.9 °F 51.1 °F 84% 29.94 in 4.0 mi ENE 11.5 mph 18.4 mph 0.00 in Rain Light Rain
10:52 AM 55.0 °F 52.0 °F 89% 29.93 in 4.0 mi NE 10.4 mph 24.2 mph 0.00 in Rain Light Rain
10:57 AM 55.0 °F 52.0 °F 89% 29.93 in 2.5 mi ENE 9.2 mph 24.2 mph 0.01 in Rain Light Rain
11:15 AM 55.0 °F 52.0 °F 89% 29.92 in 1.5 mi NNE 10.4 mph - 0.02 in Rain Light Rain
11:38 AM 54.0 °F 52.0 °F 93% 29.90 in 2.0 mi North 9.2 mph - 0.08 in Rain Rain
11:52 AM 55.0 °F 52.0 °F 89% 29.89 in 3.0 mi North 10.4 mph - 0.12 in Rain Rain
11:59 AM 55.0 °F 52.0 °F 89% 29.89 in 3.0 mi NNE 10.4 mph - 0.02 in Rain Rain
12:18 PM 55.0 °F 52.0 °F 89% 29.87 in 3.0 mi NNE 9.2 mph - 0.10 in Rain Rain
12:25 PM 55.0 °F 52.0 °F 89% 29.84 in 3.0 mi NE 12.7 mph - 0.12 in Rain Rain
12:35 PM 55.0 °F 52.0 °F 89% 29.84 in 3.0 mi NNE 11.5 mph 20.7 mph 0.15 in Rain Rain
12:52 PM 55.0 °F 53.1 °F 93% 29.84 in 4.0 mi NE 10.4 mph - 0.19 in Rain Rain
1:50 PM 55.4 °F 51.8 °F 88% 29.80 in 2.5 mi NNE 10.4 mph 19.6 mph 0.04 in Rain Light Rain
1:52 PM 55.0 °F 53.1 °F 93% 29.81 in 2.5 mi NNE 12.7 mph 19.6 mph 0.04 in Rain Light Rain
2:17 PM 55.9 °F 53.1 °F 90% 29.78 in 4.0 mi NE 10.4 mph - 0.02 in Rain Light Rain
2:20 PM 55.9 °F 53.1 °F 90% 29.78 in 4.0 mi NE 12.7 mph - 0.02 in Rain Light Rain
2:25 PM 55.9 °F 53.1 °F 90% 29.77 in 2.5 mi NE 12.7 mph - 0.03 in Rain Rain
2:35 PM 55.9 °F 53.1 °F 90% 29.77 in 3.0 mi NE 12.7 mph - 0.04 in Rain Light Rain
2:52 PM 55.0 °F 52.0 °F 89% 29.77 in 4.0 mi NNE 10.4 mph - 0.04 in Rain Light Rain
3:52 PM 55.0 °F 52.0 °F 89% 29.75 in 5.0 mi NE 10.4 mph 21.9 mph 0.00 in   Overcast
4:52 PM 55.0 °F 52.0 °F 89% 29.72 in 4.0 mi North 8.1 mph - N/A   Overcast
5:39 PM 54.0 °F 52.0 °F 93% 29.72 in 2.5 mi North 6.9 mph - N/A   Overcast
5:49 PM 53.6 °F 51.8 °F 94% 29.73 in 3.0 mi North 6.9 mph - N/A   Overcast
5:52 PM 54.0 °F 52.0 °F 93% 29.73 in 4.0 mi North 6.9 mph - N/A   Overcast
6:32 PM 54.0 °F 52.0 °F 93% 29.74 in 5.0 mi North 5.8 mph - N/A   Overcast
6:52 PM 54.0 °F 52.0 °F 93% 29.75 in 8.0 mi North 5.8 mph - N/A   Overcast
7:04 PM 55.0 °F 52.0 °F 89% 29.76 in 9.0 mi NNW 4.6 mph - N/A   Overcast
7:09 PM 55.0 °F 52.0 °F 89% 29.76 in 10.0 mi North 3.5 mph - N/A   Overcast
7:16 PM 55.0 °F 52.0 °F 89% 29.76 in 10.0 mi NNW 4.6 mph - N/A   Overcast
7:38 PM 55.0 °F 52.0 °F 89% 29.75 in 10.0 mi North 4.6 mph - N/A   Overcast
7:52 PM 55.0 °F 52.0 °F 89% 29.76 in 10.0 mi Calm Calm - N/A   Overcast
8:32 PM 55.0 °F 52.0 °F 89% 29.78 in 10.0 mi NW 3.5 mph - N/A   Overcast
8:48 PM 53.6 °F 51.8 °F 94% 29.79 in 10.0 mi NW 5.8 mph - N/A   Overcast
8:52 PM 54.0 °F 51.1 °F 90% 29.79 in 10.0 mi Variable 4.6 mph - N/A   Overcast
9:28 PM 54.0 °F 52.0 °F 93% 29.79 in 10.0 mi Calm Calm - N/A   Overcast
9:37 PM 54.0 °F 52.0 °F 93% 29.79 in 10.0 mi Calm Calm - N/A   Overcast
9:45 PM 54.0 °F 51.1 °F 90% 29.80 in 10.0 mi Calm Calm - N/A   Overcast
9:52 PM 54.0 °F 51.1 °F 90% 29.80 in 10.0 mi Calm Calm - N/A   Overcast
10:23 PM 54.0 °F 51.1 °F 90% 29.79 in 10.0 mi NW 3.5 mph - N/A   Overcast
10:52 PM 54.0 °F 51.1 °F 90% 29.79 in 10.0 mi Calm Calm - N/A   Mostly Cloudy